Torna al catalogo

SL-12 R/B

AUX MOTOR

AttivoHEO
NORAD 14608·ROCKET BODY·🇷🇺 Russia

Lanciato Dec 29, 1983 da Baikonur Cosmodrome

Loading…

Prossimi Passaggi (prossime 24 ore)

TLE

AggiornatoSource: Space-Track

Epoca: Sep 13, 2026, 02:27 UTC

1 14608U 83127H   26256.10267814  .00002069  00000-0  83589-3 0  9993
2 14608  51.6094 262.3573 5371631 291.1674  20.9182  4.95654089642970

Traccia SL-12 R/B in tempo reale con AllMySat

Download on the App Store